Content
SEND FEEDBACK

Daily
Averages
Monthly
Summary
United States of America

AGAT, GUAM


Home > North America > United States > Guam
Elevation: 110 meters     Latitude: 13 33N     Longitude: 144 50E

WEATHER
 
SELECT A DAY
Number of Records: 215,592;   Date Range: 1/1/95 - 12/20/14
 
SHARE

PRINT THIS DATA

[ ← Previous Day ]
WEATHER ALMANAC - 21 APRIL, 2013
[ Next Day → ]
[ °F ]   °C
Weather ElementAverageHighLow
Temperature29.2 °C31.7 °C (11:54 am)27.2 °C (3:54 am)
Dewpoint22.4 °C23.3 °C (1:54 am)21.7 °C (6:54 am)
Humidity66.8 %77 % (4:54 am)57 % (10:54 am)
Barometer1011.9 hPa1012.9 hPa (7:54 am)1010.2 hPa (1:54 pm)
Wind Speed12.4 km/h18.5 km/h (7:54 am)
Wind Gust33.3 km/h (1:54 pm)
Weather ElementAverage
Visibility16.1 km
Wind DirectionESE (96.4 °)

Weather ElementTotal
Precipitation---
Cooling Degree Days11.2 (Base 18.3)
Growing Degree Days19.5 (Base 10)
Averaged from 25 records on 21 April, 2013
WEATHER CONDITIONS BREAKOUT
WIND DIRECTION BREAKOUT
WEATHER BY HOUR - 21 APRIL, 2013
[ °F ]   °C
Local TimeTemperatureDewpointHumidityBarometerVisibilityWind DirectionWind SpeedGust SpeedPrecipitationEventsConditions
1:54 AM27.8 °C23.3 °C76 %1011.5 hPa16.1 kmEast (80°)13 km/h0 mmPartly Cloudy
2:54 AM27.8 °C22.8 °C74 %1011.2 hPa16.1 kmEast (80°)14.8 km/hClear
3:54 AM27.2 °C22.2 °C74 %1011.2 hPa16.1 kmEast (80°)9.3 km/hClear
4:54 AM27.2 °C22.8 °C77 %1011.2 hPa16.1 kmEast (80°)7.4 km/hClear
5:54 AM27.2 °C22.8 °C77 %1011.9 hPa16.1 kmEast (100°)7.4 km/hPartly Cloudy
6:54 AM27.8 °C21.7 °C69 %1012.2 hPa16.1 kmEast (90°)9.3 km/hClear
7:54 AM29.4 °C22.2 °C65 %1012.9 hPa16.1 kmEast (80°)18.5 km/hPartly Cloudy
8:54 AM30 °C21.7 °C61 %1012.9 hPa16.1 kmEast (90°)18.5 km/h25.9 km/hPartly Cloudy
9:54 AM30.6 °C21.7 °C59 %1012.9 hPa16.1 kmESE (110°)16.7 km/h27.8 km/hPartly Cloudy
10:54 AM31.1 °C21.7 °C57 %1012.5 hPa16.1 kmESE (110°)16.7 km/hScattered Clouds
11:54 AM31.7 °C22.2 °C57 %1012.2 hPa16.1 kmESE (110°)16.7 km/hScattered Clouds
12:54 PM31.7 °C22.2 °C57 %1011.5 hPa16.1 kmESE (110°)14.8 km/hScattered Clouds
1:54 PM31.7 °C22.2 °C57 %1010.2 hPa16.1 kmESE (120°)14.8 km/h33.3 km/hScattered Clouds
2:54 PM31.1 °C22.8 °C61 %1010.2 hPa16.1 kmESE (120°)13 km/hMostly Cloudy
3:54 PM30.6 °C21.7 °C59 %1010.2 hPa16.1 kmESE (120°)14.8 km/hPartly Cloudy
4:54 PM30.6 °C22.8 °C63 %1010.2 hPa16.1 kmSE (130°)9.3 km/hPartly Cloudy
5:54 PM29.4 °C22.2 °C65 %1010.5 hPa16.1 kmESE (110°)13 km/hClear
6:54 PM28.9 °C22.8 °C69 %1011.2 hPa16.1 kmEast (90°)7.4 km/hPartly Cloudy
7:26 PM29 °C23 °C70 %1012.5 hPa16.1 kmEast (90°)11.1 km/hMostly Cloudy
7:37 PM29 °C23 °C70 %1012.5 hPa16.1 kmEast (90°)9.3 km/hScattered Clouds
7:54 PM28.9 °C22.8 °C69 %1011.9 hPa16.1 kmEast (80°)9.3 km/hPartly Cloudy
8:54 PM28.3 °C22.8 °C72 %1012.2 hPa16.1 kmEast (80°)9.3 km/hPartly Cloudy
9:54 PM28.3 °C22.2 °C69 %1012.9 hPa16.1 kmEast (90°)13 km/hScattered Clouds
10:54 PM27.8 °C22.8 °C74 %1012.9 hPa16.1 kmEast (90°)11.1 km/hClear
11:54 PM27.8 °C21.7 °C69 %1012.5 hPa16.1 kmEast (80°)11.1 km/hPartly Cloudy
Hourly data recorded from PGUM, located 0 kilometers away from Agat, Guam







STORIES FROM OUR PARTNERS